COSMOS 1275 DEB, 12667

Orbit data source: Space-Track

COSMOS 1275 DEB, 12667 is space debris in LEO originally from a launch on Thu, 04 Jun 1981 UTC launched from the Plesetsk Missile And Space Complex (PKMTR). Debris objects in space refer to the collection of defunct objects orbiting the Earth. Examples of debris include non-operational satellites, rocket bodies, and fragments generated from explosions, collisions, or faulty payload assembly.

Loading next visibility...
Identifier
12667, 1981-053X
Orbit
LEO
Country
Flag of CISCIS
Related business
Manufacturer
Unknown
Mission
Spacecraft
Bus & Motor
Unknown
Mass
Unknown
Launch date (UTC)
1981-06-04 (45 years ago)
Launch vehicle
Unknown
Launch site
Plesetsk Missile And Space Complex (PKMTR)
Object type
Payload
Rocket body
Debris
Shape & HBR
Unknown shape, 0.1 m
Radar Cross Section
Medium (>0.1 m² and <1 m²)

Expand to show TLE details & history
Last TLE update: 9 hours ago

TLE from 9 hours ago
0 COSMOS 1275 DEB
1 12667U 81053X   26254.92181081  .00000339  00000-0  29164-3 0  9998
2 12667  82.8382 311.6489 0035108 181.7582 352.4165 13.83693897266520
Epoch: 2026-09-11T22:07Z
TLE epoch observation values (Epoch: 2026-09-11T22:07:24.453Z)
Latitude
5.75241°
Longitude
168.13732°
Altitude
927.652 km
Speed
7.401 km/s
True Right ascension
08h 43m 42s
True Declination
5° 43' 08"
Sunlit
Object was in daylight at epoch
Visualization orbit readout
Latitude
Unknown
Longitude
Unknown
Altitude
Unknown
Speed
Unknown
Apparent Right ascension
Unknown
Apparent Declination
Unknown
Sunlit
N/A
Visualization observer readout
Local Sidereal Time
23:47:33
Azimuth
Unknown
Elevation
Unknown
Doppler factor
Unknown
Orbital elements
Apogee altitude
973.675 km
Perigee altitude
922.234 km
Semi-major axis
7,326.092 km
Eccentricity
0.00351
Inclination
82.8382°
RAAN
311.6489°
Arg. of periapsis
181.7582°
True anomaly
352.36318°
Mean anomaly
352.4165°
Eccentric anomaly
352.38986°
Mean motion
3.46126 °/min
Orbital period
104.01 mins
BSTAR
0.00029164
Loading maneuver chart data...
Computing Atmospheric mass density...
Loading historical data...
Loading historical data...
Loading historical data...
Loading historical data...
Loading historical data...
Loading historical data...
Loading historical data...

Documentation

Showing up to 5 results
|